Regional Weather Roundup
Issued by NWS Glasgow, MT

Home | Current Version | Previous Version | Text Only | Print | Product List | Glossary On
Versions: 1 2 3 4 5 6 7 8 9 10 11 12 13 14 15 16 17 18 19 20 21 22 23 24 25 26 27 28 29 30 31 32 33 34 35 36 37 38 39 40 41 42 43 44 45 46 47 48 49 50
000
ASUS45 KGGW 260715
RWRGGW
HOURLY REGIONAL WEATHER ROUNDUP FOR NORTHEAST MONTANA
NATIONAL WEATHER SERVICE GLASGOW MONTANA
100 AM MDT MON SEP 26 2016

NOTE: "FAIR" INDICATES FEW OR NO CLOUDS BELOW 12,000 FEET WITH NO
SIGNIFICANT WEATHER AND/OR OBSTRUCTIONS TO VISISBILITY.

NORTHEAST MONTANA


CITY           SKY/WX    TMP DP  RH WIND       PRES   REMARKS
GLASGOW        PTCLDY    48  37  65 W7        30.23R
PLENTYWOOD       N/A     44  32  62 NW5         N/A
WOLF POINT     CLEAR     42  38  85 W3        30.23R
JORDAN           N/A     41  39  93 W7        30.25F
WINNETT          N/A     43  39  86 S2          N/A
SIDNEY         CLEAR     41  38  89 SW3       30.22S
GLENDIVE       CLEAR     45  39  79 CALM      30.24S
SCOBEY           N/A     36  27  70 CALM      30.19
OPHEIM           N/A     50  28  43 CALM      30.07S

FORT PECK REPORTS


CITY           SKY/WX    TMP DP  RH WIND       PRES   REMARKS
FORT PECK        N/A     52  43  71 SW6         N/A
THE PINES        N/A     51  41  68 CALM        N/A

SOUTHEAST MONTANA


CITY           SKY/WX    TMP DP  RH WIND       PRES   REMARKS
BILLINGS       PTCLDY    56  42  59 SW12      30.33S
MILES CITY     CLEAR     47  41  80 S5        30.27S
BAKER          CLEAR     45  37  73 CALM      30.27S
LIVINGSTON     CLOUDY    52  40  63 W8        30.38F

CENTRAL MONTANA


CITY           SKY/WX    TMP DP  RH WIND       PRES   REMARKS
HAVRE          CLEAR     44  41  89 SW5       30.27S
LEWISTOWN      PTCLDY    46  41  82 W7        30.34R
GREAT FALLS    CLEAR     46  40  79 SW9       30.34S
CUT BANK       CLEAR     48  40  73 W10       30.30S
HELENA         CLEAR     54  41  61 CALM      30.37S
BUTTE          CLEAR     42  37  82 S6        30.46S
BOZEMAN        CLEAR     48  41  76 S7        30.41F

WESTERN MONTANA


CITY           SKY/WX    TMP DP  RH WIND       PRES   REMARKS
MISSOULA       CLEAR     49  43  80 E3        30.43R
KALISPELL      NOT AVBL

NORTH DAKOTA


CITY           SKY/WX    TMP DP  RH WIND       PRES   REMARKS
WILLISTON      CLEAR     42  33  70 CALM      30.20S
DICKINSON      CLEAR     39  34  82 W8        30.20S
MINOT          CLEAR     49  34  56 W14       30.12S
BISMARCK       CLEAR     45  35  68 W9        30.17S

SOUTHERN SASKATCHEWAN


CITY           SKY/WX    TMP DP  RH WIND       PRES   REMARKS
REGINA         CLEAR     36  32  87 W8        30.16S
ESTEVAN        NOT AVBL
SWIFT CURRENT  CLEAR     41  34  75 SW10      30.20R




USA.gov is the U.S. government's official web portal to all federal, state and local government web resources and services.